Amateur Radio Satellites - All Passes

Search period start: 22 May 2013 18:56
Search period end: 23 May 2013 18:56
Location: High Cliff State Park, 44.1557°N, 88.2948°W

Satellite Date Start Highest point End Downlink Frequencies (MHz)
Time Altitude Azimuth
SO-67 22 May 18:57:23 19:00:04 20° 68° (ENE) 19:02:45 435.3500 MHz FM
SO-50 22 May 19:11:13 19:13:30 14° 251° (WSW) 19:15:46 436.795 FM
JAS-1B 22 May 19:26:38 19:35:46 72° 72° (ENE) 19:43:32 435.800 - 435.900 CW/SSB
STRAND 1 22 May 19:28:24 19:33:35 85° 104° (ESE) 19:38:44 ?
Hamsat 22 May 19:45:36 19:49:28 35° 263° (W) 19:53:23 145.90 MHz
HO-68 22 May 20:12:00 20:18:06 32° 59° (ENE) 20:24:13 435.675 MHz FM
AO-40 22 May 20:14:17 03:07:48 43° 178° (S) 09:05:36 Beacon 2401.320
SO-67 22 May 20:30:20 20:33:23 27° 264° (W) 20:36:28 435.3500 MHz FM
JAS-2 22 May 20:30:49 20:37:28 32° 61° (ENE) 20:44:06 435.800 - 435.900 CW/SSB, 435.910 FM
UOSAT-12 22 May 20:31:07 20:35:45 82° 236° (WSW) 20:40:21 437.025 FM, 437.400 FM
RS-15 22 May 21:02:18 21:11:38 27° 352° (N) 21:20:40 29.354 - 29.394 USB, Beacon 29.352 USB
STRAND 1 22 May 21:09:23 21:12:05 15° 302° (WNW) 21:14:47 ?
JAS-1B 22 May 21:19:12 21:26:41 28° 267° (W) 21:33:23 435.800 - 435.900 CW/SSB
Oscar 11 22 May 21:42:49 21:47:06 70° 74° (ENE) 21:51:26 145.825 FM, Beacon 2401.500 USB
OPAL 22 May 21:53:32 21:58:36 56° 69° (ENE) 22:03:38 ?
HO-68 22 May 21:58:28 22:05:27 56° 258° (WSW) 22:12:28 435.675 MHz FM
JAS-2 22 May 22:14:16 22:21:56 65° 259° (W) 22:29:45 435.800 - 435.900 CW/SSB, 435.910 FM
KITSAT 1 22 May 22:59:56 23:07:45 57° 115° (ESE) 23:15:38 435.175 FM
RS-15 22 May 23:18:30 23:28:34 34° 27° (NNE) 23:38:16 29.354 - 29.394 USB, Beacon 29.352 USB
Oscar 11 22 May 23:22:23 23:23:50 11° 271° (W) 23:25:17 145.825 FM, Beacon 2401.500 USB
OPAL 22 May 23:34:02 23:37:49 20° 266° (W) 23:41:35 ?
JAS-2 23 May 00:05:18 00:08:19 13° 278° (W) 00:11:22 435.800 - 435.900 CW/SSB, 435.910 FM
MaSat-1 23 May 00:53:16 00:58:34 24° 106° (ESE) 01:03:14 437.345 MHz
KITSAT 1 23 May 00:55:57 01:03:28 41° 316° (NW) 01:11:04 435.175 FM
Oscar 19 23 May 01:24:47 01:26:39 12° 87° (E) 01:28:31 437.125 CW, 437.150 USB
RS-15 23 May 01:31:29 01:42:43 86° 55° (NE) 01:53:37 29.354 - 29.394 USB, Beacon 29.352 USB
Oscar 16 23 May 02:02:01 02:06:38 32° 96° (E) 02:11:13 437.025 USB, Beacon 2401.1428
AO-27 23 May 02:11:28 02:15:58 29° 95° (E) 02:20:27 436.795 MHz FM
ITAMSAT 1 23 May 02:17:58 02:22:38 32° 96° (E) 02:27:16 435.822 SSB
ISS 23 May 02:18:47 02:21:20 21° 135° (SE) 02:23:54 145.800 FM
MaSat-1 23 May 02:33:32 02:40:30 70° 299° (WNW) 02:46:08 437.345 MHz
KITSAT 1 23 May 02:56:26 03:01:29 17° 344° (NNW) 03:06:32 435.175 FM
Uribyol 2 23 May 02:58:37 03:03:53 77° 103° (ESE) 03:09:07 436.500 FM
Uosat F 23 May 02:59:28 03:00:44 11° 88° (E) 03:02:00 435.120 FM
Oscar 19 23 May 03:01:30 03:06:43 87° 285° (WNW) 03:11:52 437.125 CW, 437.150 USB
AO-Echo 23 May 03:03:58 03:08:06 29° 96° (E) 03:12:17 ?
Oscar 16 23 May 03:41:21 03:46:00 35° 293° (WNW) 03:50:37 437.025 USB, Beacon 2401.1428
RS-15 23 May 03:45:15 03:53:37 26° 258° (WSW) 04:01:55 29.354 - 29.394 USB, Beacon 29.352 USB
AO-27 23 May 03:50:45 03:55:35 39° 292° (WNW) 04:00:24 436.795 MHz FM
ISS 23 May 03:54:31 03:57:48 59° 333° (NNW) 04:01:07 145.800 FM
TMSAT-1 23 May 03:54:54 03:59:02 23° 92° (E) 04:03:08 436.925 FM
ITAMSAT 1 23 May 03:57:26 04:02:09 35° 293° (WNW) 04:06:51 435.822 SSB
AO-7 23 May 04:11:36 04:15:43 14° 86° (E) 04:19:48 29.400 - 29.500 MHz
Gurwin Techsat 1B 23 May 04:16:11 04:21:22 51° 100° (E) 04:26:32 435.225 FM
MaSat-1 23 May 04:19:44 04:23:20 16° 315° (NW) 04:26:33 437.345 MHz
Uosat F 23 May 04:35:11 04:40:15 90° 105° (ESE) 04:45:17 435.120 FM
Saudisat 1A 23 May 04:35:50 04:37:19 11° 107° (ESE) 04:38:48 436.775 MHz
Uribyol 2 23 May 04:39:37 04:42:44 16° 301° (WNW) 04:45:52 436.500 FM
AO-Echo 23 May 04:42:42 04:46:55 33° 292° (WNW) 04:51:12 ?
Oscar 19 23 May 04:42:57 04:45:17 13° 303° (WNW) 04:47:37 437.125 CW, 437.150 USB
KITSAT 1 23 May 04:55:48 05:00:46 17° 15° (NNE) 05:05:45 435.175 FM
STRAND 1 23 May 05:08:48 05:12:26 20° 61° (ENE) 05:16:05 ?
ISS 23 May 05:32:14 05:35:00 23° 352° (N) 05:37:46 145.800 FM
TMSAT-1 23 May 05:34:07 05:39:14 50° 290° (WNW) 05:44:21 436.925 FM
Gurwin Techsat 1B 23 May 05:56:52 06:01:01 24° 297° (WNW) 06:05:10 435.225 FM
AO-7 23 May 06:01:31 06:09:55 73° 106° (ESE) 06:18:16 29.400 - 29.500 MHz
Saudisat 1A 23 May 06:11:43 06:16:18 88° 305° (NW) 06:20:57 436.775 MHz
Uosat F 23 May 06:16:01 06:18:20 13° 303° (WNW) 06:20:38 435.120 FM
PCSat 23 May 06:34:08 06:38:08 21° 107° (ESE) 06:42:08 145.825 MHz
STRAND 1 23 May 06:46:12 06:51:12 58° 259° (W) 06:56:15 ?
KITSAT 1 23 May 06:51:20 06:58:52 39° 43° (NE) 07:06:22 435.175 FM
Sapphire 23 May 07:05:57 07:10:53 37° 112° (ESE) 07:15:50 437.095 MHz 1200 baud AX-25 AFSK
ISS 23 May 07:09:32 07:12:26 26° 13° (NNE) 07:15:21 145.800 FM
JAS-1B 23 May 07:14:17 07:16:30 12° 85° (E) 07:18:40 435.800 - 435.900 CW/SSB
Hamsat 23 May 07:30:16 07:34:20 36° 97° (E) 07:38:22 145.90 MHz
Oscar 10/S400 23 May 07:36:23 10:23:25 39° 257° (WSW) 17:28:15 145.825 - 145.975 CW/USB, Beacon 145.810 USB
SO-50 23 May 07:47:15 07:50:21 17° 110° (ESE) 07:53:25 436.795 FM
Saudisat 1A 23 May 07:53:39 07:56:41 17° 325° (NW) 07:59:44 436.775 MHz
AO-7 23 May 07:55:09 08:02:02 30° 306° (NW) 08:08:56 29.400 - 29.500 MHz
SO-67 23 May 07:55:40 07:58:26 21° 94° (E) 08:01:12 435.3500 MHz FM
PCSat 23 May 08:15:45 08:21:06 60° 305° (NW) 08:26:29 145.825 MHz
ISS 23 May 08:46:07 08:49:29 89° 32° (NNE) 08:52:51 145.800 FM
KITSAT 1 23 May 08:46:43 08:54:40 61° 245° (WSW) 09:02:36 435.175 FM
Sapphire 23 May 08:49:20 08:54:19 37° 311° (NW) 08:59:20 437.095 MHz 1200 baud AX-25 AFSK
JAS-1B 23 May 09:02:09 09:08:19 86° 286° (WNW) 09:13:58 435.800 - 435.900 CW/SSB
Hamsat 23 May 09:06:48 09:10:12 23° 294° (WNW) 09:13:38 145.90 MHz
HO-68 23 May 09:24:54 09:30:46 26° 93° (E) 09:36:35 435.675 MHz FM
JAS-2 23 May 09:24:55 09:29:36 19° 86° (E) 09:33:55 435.800 - 435.900 CW/SSB, 435.910 FM
SO-50 23 May 09:25:44 09:30:30 66° 307° (NW) 09:35:13 436.795 FM
SO-67 23 May 09:28:53 09:31:53 26° 290° (WNW) 09:34:53 435.3500 MHz FM
Oscar 11 23 May 09:31:35 09:33:03 12° 89° (E) 09:34:32 145.825 FM, Beacon 2401.500 USB
PCSat 23 May 10:02:52 10:05:42 14° 327° (NNW) 10:08:33 145.825 MHz
OPAL 23 May 10:04:37 10:06:14 11° 90° (E) 10:07:50 ?
ISS 23 May 10:24:05 10:25:46 13° 228° (SW) 10:27:26 145.800 FM
UOSAT-12 23 May 10:45:13 10:48:32 20° 112° (ESE) 10:51:52 437.025 FM, 437.400 FM
KITSAT 1 23 May 10:46:39 10:48:23 11° 264° (W) 10:50:07 435.175 FM
JAS-1B 23 May 10:54:54 10:57:54 14° 309° (NW) 11:00:47 435.800 - 435.900 CW/SSB
Oscar 11 23 May 11:05:24 11:09:46 71° 285° (WNW) 11:14:07 145.825 FM, Beacon 2401.500 USB
JAS-2 23 May 11:08:33 11:15:33 75° 288° (WNW) 11:21:40 435.800 - 435.900 CW/SSB, 435.910 FM
SO-50 23 May 11:09:27 11:12:02 14° 328° (NNW) 11:14:35 436.795 FM
HO-68 23 May 11:11:51 11:18:55 64° 292° (WNW) 11:25:58 435.675 MHz FM
MaSat-1 23 May 11:17:55 11:21:21 72° 61° (ENE) 11:24:08 437.345 MHz
OPAL 23 May 11:40:46 11:45:49 87° 287° (WNW) 11:50:47 ?
UOSAT-12 23 May 12:23:57 12:28:21 51° 310° (NW) 12:32:49 437.025 FM, 437.400 FM
Uribyol 2 23 May 12:40:49 12:44:25 19° 61° (ENE) 12:48:02 436.500 FM
Oscar 19 23 May 12:42:18 12:46:14 22° 62° (ENE) 12:50:11 437.125 CW, 437.150 USB
JAS-2 23 May 12:55:25 12:59:15 16° 309° (NW) 13:02:52 435.800 - 435.900 CW/SSB, 435.910 FM
Saudisat 1A 23 May 12:58:54 13:02:17 20° 38° (NE) 13:05:37 436.775 MHz
HO-68 23 May 13:01:47 13:05:16 14° 312° (NW) 13:08:46 435.675 MHz FM
Oscar 16 23 May 13:20:23 13:25:26 54° 71° (ENE) 13:30:31 437.025 USB, Beacon 2401.1428
OPAL 23 May 13:21:43 13:23:57 13° 306° (NW) 13:26:09 ?
AO-27 23 May 13:31:06 13:36:05 50° 70° (ENE) 13:41:06 436.795 MHz FM
ITAMSAT 1 23 May 13:37:30 13:42:32 56° 71° (ENE) 13:47:37 435.822 SSB
Gurwin Techsat 1B 23 May 14:02:19 14:04:58 14° 57° (ENE) 14:07:37 435.225 FM
UOSAT-12 23 May 14:07:56 14:09:36 12° 331° (NNW) 14:11:17 437.025 FM, 437.400 FM
Sapphire 23 May 14:10:40 14:12:20 11° 29° (NNE) 14:14:00 437.095 MHz 1200 baud AX-25 AFSK
Uosat F 23 May 14:13:15 14:16:47 20° 61° (ENE) 14:20:21 435.120 FM
Uribyol 2 23 May 14:18:19 14:23:26 62° 258° (WSW) 14:28:37 436.500 FM
AO-Echo 23 May 14:18:35 14:23:10 44° 70° (ENE) 14:27:40 ?
Oscar 19 23 May 14:20:09 14:25:13 53° 260° (W) 14:30:20 437.125 CW, 437.150 USB
Saudisat 1A 23 May 14:37:56 14:42:29 71° 238° (WSW) 14:46:55 436.775 MHz
Oscar 16 23 May 15:01:19 15:05:08 20° 268° (W) 15:08:58 437.025 USB, Beacon 2401.1428
AO-7 23 May 15:11:42 15:18:17 27° 52° (NE) 15:24:54 29.400 - 29.500 MHz
AO-27 23 May 15:11:57 15:15:53 22° 267° (W) 15:19:51 436.795 MHz FM
TMSAT-1 23 May 15:17:03 15:21:57 40° 68° (ENE) 15:26:53 436.925 FM
ITAMSAT 1 23 May 15:18:43 15:22:24 20° 268° (W) 15:26:07 435.822 SSB
PCSat 23 May 15:19:17 15:23:56 28° 45° (NE) 15:28:34 145.825 MHz
Gurwin Techsat 1B 23 May 15:38:52 15:44:11 89° 77° (ENE) 15:49:32 435.225 FM
Uosat F 23 May 15:50:17 15:55:11 57° 259° (W) 16:00:08 435.120 FM
Sapphire 23 May 15:52:04 15:57:16 44° 51° (NE) 16:02:25 437.095 MHz 1200 baud AX-25 AFSK
RS-15 23 May 15:55:37 16:06:54 49° 111° (ESE) 16:17:44 29.354 - 29.394 USB, Beacon 29.352 USB
AO-Echo 23 May 15:58:30 16:02:10 21° 267° (W) 16:05:48 ?
SO-50 23 May 16:16:29 16:20:22 26° 42° (NE) 16:24:11 436.795 FM
TMSAT-1 23 May 16:57:29 17:01:59 28° 266° (W) 17:06:32 436.925 FM
AO-7 23 May 17:01:59 17:10:17 79° 253° (WSW) 17:18:40 29.400 - 29.500 MHz
PCSat 23 May 17:02:23 17:07:40 54° 245° (WSW) 17:12:55 145.825 MHz
Gurwin Techsat 1B 23 May 17:22:57 17:24:54 12° 273° (W) 17:26:51 435.225 FM
Sapphire 23 May 17:35:50 17:40:31 30° 250° (WSW) 17:45:12 437.095 MHz 1200 baud AX-25 AFSK
SO-50 23 May 17:56:50 18:01:11 45° 242° (WSW) 18:05:27 436.795 FM
JAS-1B 23 May 17:58:41 18:04:58 23° 58° (ENE) 18:10:35 435.800 - 435.900 CW/SSB
RS-15 23 May 18:07:26 18:19:12 59° 314° (NW) 18:30:29 29.354 - 29.394 USB, Beacon 29.352 USB
Hamsat 23 May 18:26:06 18:29:50 32° 69° (ENE) 18:33:37 145.90 MHz
SO-67 23 May 18:34:55 18:36:03 11° 63° (ENE) 18:37:10 435.3500 MHz FM

Developed and maintained by Chris Peat, Heavens-Above GmbH. Please read the updated FAQ before sending e-mail. Imprint. DLR
